Airfield :
LOGIN :

Register | Disclaimer

   EN    FR    IT 

 










Legend :    VFR   Marginal VFR   IFR   Intensive IFR   Very Intensive IFR
Visi :
Ceiling :
>= 8 km
>= 3000ft
5 to 8 km
1000 to 3000 ft
1500m to 5 km
500 to 1000 ft
800 to 1500m
200 to 500 ft
< 800m
< 200 ft
Symbols :   Thunderstorms  Fog  Heavy snow  Heavy precipitations  Wind > 20 kt
SIGMETs :     Misc.  Thunderstorms  Icing  Turbulence  Mountain Waves  Volcanic Ashes







- Airport Elevation : 2945 ft
- IATA code : RGS


LEBG - Burgos

CURRENT METAR :
  • 161234Z 24011KT 9999 3200W VCFG FEW003 BKN013 04/02 Q1017

EXPIRED METARs :
  • 161200Z 23011KT 200V260 9999 4800W VCFG FEW004 SCT010 05/02 Q1017
  • 161130Z 23009KT 190V260 9999 FEW012 06/03 Q1017
  • 161100Z 24008KT 9999 FEW009 05/03 Q1017
  • 161030Z 24008KT 9999 FEW008 03/02 Q1017

TAF TAF LEBG
Valid from the 16 at 12:00 until the 16 at 21:00 UTC


161100Z 1612/1621 23011KT CAVOK
BECMG 1612/1614 SCT014 BKN030
BECMG 1619/1620 VRB04KT
No reported NOTAMs for that airfield.



MET'MAP, your aeronautical weather chart ! - Copyright ORBIFLY December 2007 - Disclaimer

ORBIFLY MET'MAP TEAM :

Programming & Development : Alexandra Zaïnal
Concept & Development : Baudouin d'Aumeries
Co-Development & Prog : Marc-Olivier Méhu
Technical & hardware support : Manuel Goepfert

Contact : metmap@orbifly.com




SOURCES & CREDITS :

   NOAA